DW9584 Weather Reports


time (UTC)temp
C
wind
direction
speed
KPH
gust
KPH
rain 1hr
cm
rain 24hr
cm
rain mn
cm
humidity
%
barometer
mb
20260905083004 21 46 0.0 0.0 0.00 0.30 0.03 96 1010.7
20260905081504 21 46 0.0 0.0 0.00 0.33 0.03 96 1010.8
20260905080003 21 46 0.0 0.0 0.00 0.33 0.03 96 1010.8
20260905074504 21 46 0.0 0.0 0.00 0.33 0.03 96 1010.8
20260905073010 21 46 0.0 0.0 0.00 0.33 0.03 95 1010.7
20260905071504 21 46 0.0 0.0 0.00 0.33 0.03 95 1010.8
20260905070005 21 46 0.0 0.0 0.00 0.33 0.03 95 1011.0
20260905064510 21 46 0.0 0.0 0.00 0.33 0.03 95 1011.0
20260905063004 21 46 0.0 0.0 0.00 0.33 0.03 95 1010.9
20260905061505 21 46 0.0 0.0 0.00 0.33 0.03 95 1011.1
20260905060006 21 46 0.0 0.0 0.00 0.33 0.03 95 1011.2
20260905054506 21 46 0.0 0.0 0.00 0.33 0.03 95 1011.2
20260905053018 21 46 0.0 0.0 0.00 0.33 0.03 94 1011.3
20260905051507 21 46 0.0 0.0 0.00 0.33 0.03 94 1011.5
20260905050011 21 46 0.0 0.0 0.03 0.33 0.03 94 1011.4
20260905044515 21 46 0.0 0.0 0.05 0.33 0.03 93 1011.6
20260905043008 22 46 0.0 3.2 0.30 0.36 0.03 93 1011.8
20260905041510 23 359 0.0 3.2 0.30 0.58 0.03 93 1011.7
20260905040012 23 359 0.0 0.0 0.28 0.79 0.00 92 1011.7
20260905034511 23 185 0.0 3.2 0.25 0.76 0.76 91 1011.6
20260905033016 23 222 0.0 0.0 0.00 0.51 0.51 90 1011.7
20260905031508 23 222 0.0 0.0 0.00 0.51 0.51 90 1011.5
20260905030012 23 222 0.0 0.0 0.00 0.51 0.51 90 1011.5
20260905024512 23 222 0.0 0.0 0.00 0.51 0.51 89 1011.4
20260905023009 23 222 0.0 0.0 0.00 0.51 0.51 88 1011.4
20260905021510 23 222 0.0 0.0 0.00 0.51 0.51 88 1011.5
20260905020010 23 222 0.0 0.0 0.00 0.51 0.51 88 1011.4
20260905014507 23 222 0.0 0.0 0.00 0.51 0.51 88 1011.3
20260905013004 23 222 0.0 0.0 0.00 0.51 0.51 88 1011.4
20260905011502 24 222 0.0 0.0 0.00 0.51 0.51 87 1011.4
20260905010004 24 222 0.0 0.0 0.00 0.51 0.51 87 1011.5
20260905004507 24 222 0.0 0.0 0.00 0.51 0.51 86 1011.5
20260905003021 24 222 0.0 0.0 0.00 0.51 0.51 86 1011.3
20260905001516 24 222 0.0 0.0 0.00 0.51 0.51 85 1011.0
20260905000026 25 222 0.0 0.0 0.00 0.51 0.51 84 1011.1
20260904234509 25 222 0.0 0.0 0.00 0.51 0.51 83 1010.9
20260904233005 25 222 0.0 0.0 0.00 0.51 0.51 81 1011.0
20260904231506 25 222 0.0 0.0 0.00 0.51 0.51 80 1011.1
20260904230006 26 222 0.0 0.0 0.00 0.51 0.51 79 1011.2
20260904224527 26 222 0.0 3.2 0.00 0.51 0.51 77 1011.4
20260904223021 27 188 0.0 3.2 0.00 0.51 0.51 74 1011.2
20260904221521 27 285 0.0 3.2 0.00 0.51 0.51 74 1011.2
20260904220024 27 231 0.0 3.2 0.00 0.51 0.51 74 1011.5
20260904214515 27 279 0.0 3.2 0.00 0.51 0.51 73 1011.6
20260904213009 27 324 0.0 6.4 0.00 0.51 0.51 70 1011.8
20260904211510 27 290 0.0 4.8 0.00 0.51 0.51 70 1011.7
20260904210006 27 77 0.0 3.2 0.00 0.51 0.51 70 1011.3
20260904204526 28 141 0.0 4.8 0.00 0.51 0.51 65 1011.3
20260904203042 28 104 0.0 6.4 0.00 0.51 0.51 65 1011.4
20260904201523 28 167 0.0 6.4 0.00 0.51 0.51 65 1011.6
20260904200020 28 281 0.0 4.8 0.00 0.51 0.51 66 1011.8
20260904194521 28 236 0.0 6.4 0.00 0.51 0.51 66 1011.9
20260904193011 29 289 1.6 6.4 0.00 0.51 0.51 63 1012.1
20260904191510 29 313 1.6 6.4 0.00 0.51 0.51 64 1012.1
20260904190037 28 118 1.6 9.7 0.00 0.51 0.51 64 1012.3
20260904184536 29 328 0.0 6.4 0.00 0.51 0.51 65 1012.6
20260904183028 29 330 3.2 8.0 0.00 0.51 0.51 64 1012.7
20260904181526 29 195 3.2 9.7 0.00 0.51 0.51 65 1012.8
20260904180022 28 313 0.0 6.4 0.00 0.51 0.51 67 1012.7
20260904174519 28 214 0.0 8.0 0.00 0.51 0.51 65 1012.7
20260904173034 28 80 0.0 4.8 0.00 0.51 0.51 67 1012.9
20260904171516 28 285 0.0 11.3 0.00 0.51 0.51 68 1012.9
20260904170014 28 158 0.0 6.4 0.00 0.51 0.51 68 1012.9
20260904164530 27 228 0.0 6.4 0.00 0.51 0.51 68 1012.9
20260904163007 27 8 0.0 8.0 0.00 0.51 0.51 70 1013.0
20260904161502 28 297 1.6 6.4 0.00 0.53 0.51 68 1013.1
20260904160003 27 338 0.0 3.2 0.00 0.53 0.51 69 1013.3
20260904154528 27 326 0.0 6.4 0.00 0.53 0.51 70 1013.1
20260904153018 27 187 0.0 4.8 0.00 0.53 0.51 73 1013.3
20260904151518 27 39 0.0 8.0 0.00 0.53 0.51 72 1013.2
20260904150025 26 236 1.6 8.0 0.00 0.53 0.51 73 1013.3
20260904144511 26 150 0.0 4.8 0.00 0.53 0.51 75 1013.1
20260904143010 26 302 1.6 11.3 0.00 0.53 0.51 75 1013.2
20260904141506 26 290 1.6 4.8 0.00 0.53 0.51 78 1013.0
20260904140004 25 268 0.0 11.3 0.00 0.53 0.51 79 1013.0
20260904134539 25 290 3.2 11.3 0.00 0.53 0.51 80 1013.0
20260904133025 24 303 1.6 8.0 0.00 0.53 0.51 82 1013.1
20260904131518 24 239 1.6 8.0 0.00 0.53 0.51 84 1013.1
20260904130018 23 269 1.6 8.0 0.00 0.53 0.51 85 1013.1
20260904124513 23 286 0.0 14.5 0.00 0.53 0.51 87 1013.2
20260904123012 22 323 1.6 9.7 0.00 0.53 0.51 90 1013.1
20260904121509 22 273 0.0 6.4 0.00 0.53 0.51 91 1013.1
20260904120030 21 338 3.2 12.9 0.00 0.53 0.51 93 1013.1
20260904114537 21 329 1.6 4.8 0.00 0.53 0.51 94 1012.9
20260904113031 21 254 1.6 6.4 0.00 0.53 0.51 95 1012.8
20260904111525 21 251 0.0 6.4 0.00 0.53 0.51 95 1012.6
20260904110020 21 248 0.0 4.8 0.00 0.56 0.51 95 1012.4
20260904104519 21 297 0.0 4.8 0.00 0.56 0.51 95 1012.2
20260904103015 21 307 0.0 3.2 0.00 0.56 0.51 95 1012.0
20260904101512 21 299 0.0 4.8 0.00 0.56 0.51 96 1012.0
20260904100031 21 292 0.0 3.2 0.00 0.61 0.51 96 1012.2
20260904094539 21 343 0.0 6.4 0.00 0.61 0.51 96 1012.2
20260904093040 22 283 0.0 8.0 0.00 0.64 0.51 96 1012.1
20260904091534 22 252 0.0 4.8 0.03 0.64 0.51 96 1012.3
20260904090025 22 245 0.0 3.2 0.03 0.66 0.51 96 1012.4
20260904084522 22 181 0.0 4.8 0.03 0.99 0.51 96 1012.5